Location: Turtle Rock Observatory
(36.6913°N, 81.9708°W)
Time: 07:45:35
(UTC-04:00)

Daily predictions for brighter satellites

Satellite Brightness Start Highest point End
(mag) Time Altitude Azimuth Time Altitude Azimuth Time Altitude Azimuth
Cosmos 1844 Rocket 3.6 20:30:33 10° N 20:35:35 32° ENE 20:40:35 10° ESE
Cosmos 1455 3.9 20:34:49 10° SE 20:37:07 15° E 20:39:26 10° NE
Cosmos 2263 Rocket 3.2 20:32:06 10° NNW 20:37:34 49° WSW 20:42:59 10° S
Cosmos 2237 Rocket 3.6 20:38:47 10° SE 20:41:59 16° E 20:45:11 10° ENE
Cosmos 2219 Rocket 2.7 20:37:38 10° SSE 20:42:43 36° ESE 20:47:50 10° NE
Cosmos 2074 Rocket 4.1 20:36:53 10° S 20:43:11 87° E 20:49:30 10° N
ERS-2 2.5 20:40:37 10° SE 20:44:06 44° ENE 20:47:37 10° N
Cosmos 1892 4.0 20:41:41 10° NNE 20:44:48 22° ENE 20:47:46 11° SE
NOSS 2-1 (E) 3.1 20:44:11 10° SSW 20:47:44 62° ESE 20:51:33 10° NE
Cosmos 1610 Rocket 4.5 20:43:36 10° S 20:49:36 64° E 20:55:41 10° NNE
ATLAS CENTAUR R/B 2.3 20:47:21 10° SSE 20:50:05 20° ESE 20:52:53 10° ENE
Cosmos 2278 Rocket 4.0 20:49:02 10° NNE 20:52:17 15° NE 20:55:30 10° E
USA 186 1.5 20:56:09 18° SE 20:57:26 35° ENE 20:59:32 10° N
Resurs 1-3 4.1 20:54:03 10° SE 20:58:08 40° ENE 21:02:15 10° N
Cosmos 1666 Rocket 4.0 20:54:39 10° N 20:58:54 41° E 21:03:03 10° SSE
NOSS 3-3 (A) 4.0 20:53:31 10° SSW 20:59:17 56° ESE 21:05:34 10° NE
NOSS 3-3 (C) 4.0 20:53:38 10° SSW 20:59:24 56° ESE 21:05:39 10° NE
H-2A R/B 4.1 20:59:55 10° ENE 21:00:06 10° ENE 21:00:18 10° ENE
OAO 2 Rocket 3.4 20:55:41 10° W 21:00:54 73° S 21:04:58 16° ESE
YAOGAN 6 2.7 21:01:47 10° SSE 21:05:13 55° ENE 21:08:46 10° N
Cosmos 494 Rocket 4.1 21:02:17 10° NNW 21:07:30 77° WSW 21:12:43 10° S
Cosmos 1809 Rocket 4.4 21:03:14 10° S 21:09:22 82° E 21:15:34 10° N
USA 267 4.1 21:08:10 10° ENE 21:13:26 25° ESE 21:18:39 10° S
Cosmos 1340 2.8 21:10:03 10° SSW 21:13:49 74° W 21:17:38 10° N
Sich 1 2.9 21:09:48 10° N 21:14:05 70° E 21:18:08 11° SSE
In-Cosmos 22 Rocket 4.3 21:09:06 10° NNW 21:14:35 78° W 21:19:54 10° S
Cosmos 1151 Rocket 3.9 21:13:26 21° SE 21:15:06 27° E 21:18:44 10° NNE
Nadezhda 3 Rocket 4.0 21:09:09 10° N 21:15:26 68° E 21:21:45 10° SSE
Cosmos 2251 Rocket 3.5 21:13:23 10° NNW 21:18:46 73° ENE 21:23:05 16° SSE
Cosmos 1939 Rocket 2.7 21:16:07 13° SSE 21:19:34 82° ENE 21:23:28 10° N
SJ-6B 4.2 21:16:40 10° S 21:20:30 40° W 21:24:18 10° NNW
Envisat 3.9 21:19:00 10° S 21:23:54 50° W 21:28:50 10° NNW
Cosmos 1825 3.7 21:25:51 10° NNE 21:28:24 20° ENE 21:28:24 20° ENE
Meteor 2-14 Rocket 4.4 21:22:46 10° S 21:28:50 88° E 21:35:00 10° N
SL-16 R/B 4.2 21:33:18 12° ENE 21:33:18 12° ENE 21:33:52 10° ENE
Cosmos 2098 Rocket 4.4 21:31:01 25° E 21:31:01 25° E 21:34:17 10° NE
Meteor 2-3 Rocket 3.7 21:25:20 10° N 21:30:54 62° E 21:34:38 21° SSE
Cosmos 1633 Rocket 2.9 21:28:31 10° N 21:32:53 85° E 21:35:51 20° S
Cosmos 2228 Rocket 3.2 21:32:02 25° SSE 21:34:20 50° E 21:38:35 10° NNE
Meteor 2-16 Rocket 4.4 21:31:35 10° S 21:37:43 85° E 21:43:52 10° N
SL-8 R/B 3.6 21:33:12 10° SW 21:37:56 65° SE 21:41:34 17° ENE
Cosmos 1515 Rocket 3.6 21:37:19 24° SSE 21:39:49 59° E 21:44:13 10° NNE
SL-24 R/B - RUBIN 2 3.5 21:36:23 10° NNW 21:40:44 80° WSW 21:42:34 34° SSE
ARGOS 3.7 21:44:34 33° ESE 21:45:53 38° ENE 21:50:47 10° N
BREEZE-M DEB (TANK) 4.4 21:49:00 10° NNW 21:50:47 15° NNE 21:51:02 15° NNE
GEOS 3 Rocket 3.7 21:46:47 10° NE 21:51:58 50° ESE 21:57:01 10° SSW
Resurs 01 Rocket 2.7 21:52:34 14° SSW 21:56:03 43° W 22:00:18 10° NNW
Cosmos 1980 3.6 21:51:45 10° SSW 21:57:26 84° ESE 22:03:09 10° NNE
ATLAS 3B CENTAUR R/B 4.5 21:51:50 10° W 21:59:18 18° SW 22:03:20 11° S
Cosmos 1328 Rocket 4.4 21:56:49 10° SSW 22:01:04 50° W 22:05:24 10° N
Cosmos 1959 Rocket 4.3 22:00:08 26° S 22:03:44 73° E 22:09:51 10° N
Cosmos 2333 Rocket 3.0 21:58:15 10° SW 22:03:46 53° WNW 22:09:18 10° NNE
Cosmos 1727 Rocket 4.3 21:58:22 10° N 22:04:12 42° ENE 22:04:57 41° E
Spot 2 Rocket 4.2 22:03:43 21° SSW 22:06:58 51° W 22:11:56 10° NNW
Meteor 2-10 Rocket 3.7 22:11:14 55° SE 22:11:58 59° E 22:17:40 10° NNE
Cosmos 1455 4.2 22:09:13 10° SW 22:12:29 27° WNW 22:15:49 10° NNW
Cosmos 1470 Rocket 3.8 22:09:38 10° NNW 22:14:00 64° W 22:14:52 51° SSW
ATLAS 2AS CENTAUR R/B 2.8 22:07:53 10° NNW 22:15:46 88° ENE 22:18:18 46° SSE
Cosmos 2218 Rocket 4.0 22:11:56 24° S 22:16:01 89° WNW 22:22:27 10° N
SL-08 R/B 4.4 22:15:09 42° SSE 22:17:25 75° E 22:23:49 10° N
Cosmos 1844 Rocket 4.1 22:14:25 10° NW 22:19:23 32° WSW 22:22:47 18° SSW
Terra 4.0 22:21:55 14° NE 22:21:55 14° NE 22:23:14 10° NNE
ATLAS 2A CENTAUR R/B 4.2 22:09:05 10° SW 22:23:48 35° S 22:24:55 34° SSE
Cosmos 2237 Rocket 2.6 22:19:53 10° SSW 22:25:25 61° WNW 22:31:00 10° NNE
Cosmos 1408 3.6 22:22:25 10° NNW 22:25:16 44° NW 22:25:16 44° NW
Cosmos 2219 Rocket 4.1 22:21:48 10° WSW 22:26:40 29° WNW 22:31:33 10° N
ATLAS CENTAUR R/B 3.4 22:25:50 10° WSW 22:28:52 24° NW 22:32:01 10° N
SPOT 5 4.0 22:30:50 31° NNE 22:30:50 31° NNE 22:33:40 10° N
Cosmos 2366 rocket 4.0 22:27:19 32° SSW 22:30:22 76° W 22:36:40 10° N
SPOT 1/Viking Rocket 4.4 22:31:21 37° NE 22:31:21 37° NE 22:35:18 10° N
USA 81 4.2 22:28:23 10° N 22:32:58 60° NE 22:32:58 60° NE
MetOp-A 4.1 22:33:30 67° SSW 22:34:05 75° WSW 22:39:27 10° NNW
Cosmos 2278 Rocket 2.1 22:31:18 10° NNW 22:36:59 76° WSW 22:37:23 72° SSW
Genesis I 4.4 22:33:01 10° NW 22:35:58 43° WNW 22:35:58 43° WNW
H-2A R/B 2.0 22:39:07 79° NNW 22:39:07 79° NNW 22:43:51 10° NNW
NOSS 3-4 (A) 4.2 22:39:05 10° NNW 22:45:57 49° NE 22:46:43 48° ENE
NOSS 3-4 (C) 4.2 22:39:11 10° NNW 22:46:03 49° NE 22:46:49 47° ENE
Cosmos 407 Rocket 4.1 22:44:09 10° NNW 22:48:01 48° NNE 22:48:01 48° NNE
ERS-1 Rocket 3.3 22:50:18 64° NW 22:50:18 64° NW 22:54:41 10° NNW
USA 267 3.3 22:50:13 10° NE 22:56:45 76° NW 23:03:16 10° SW
Cosmos 2344 3.4 23:10:53 77° E 23:10:53 77° E 23:18:38 10° NE
SL-16 R/B 2.8 23:15:04 52° NNW 23:15:04 52° NNW 23:19:41 10° NNE
USA 234 4.3 23:27:52 34° NE 23:28:25 35° NNE 23:34:12 10° NNW
Cosmos 1943 Rocket 4.4 23:30:16 10° NNE 23:32:07 15° NNE 23:32:07 15° NNE
